Simultaneous Nadir Overpasses (SNOs) Predictions

Prediction of SNOs between GOES-15 and METOP-B Satellite Orbit:

Table of predicted SNOs for the next 14.0 days since TLE Epoch: 1/10/2025
Index Date Time (GOES-15) GOES-15 Lat,Lon METOP-B Lat,Lon Distance(km) Time Diff (sec)
1 01/11/2025 04:57:23 -0.04, 61.41 -0.70, 64.38 339.03 80
2 01/12/2025 17:16:31 0.03, 61.46 -0.34, 59.74 195.68 80
3 01/13/2025 16:53:17 0.03, 61.47 0.76, 64.70 368.47 80
4 01/15/2025 05:12:16 -0.03, 61.45 0.25, 60.09 154.60 80
5 01/16/2025 04:54:22 -0.03, 61.46 -0.85, 65.06 410.85 80
6 01/17/2025 17:13:29 0.02, 61.50 -0.23, 60.42 122.48 80
7 01/18/2025 16:50:14 0.02, 61.51 0.88, 65.39 441.84 80
8 01/20/2025 05:09:14 -0.02, 61.50 0.12, 60.78 82.42 80
9 01/21/2025 04:51:18 -0.02, 61.51 -0.94, 65.75 482.83 80
10 01/22/2025 17:10:27 0.02, 61.54 -0.06, 61.10 50.08 80
